This is the latest recevied weather packets stored in our database for station/object WX7FGZ-5. If no packets are shown the sender has not sent any weather packets the latest 10 day(s).
| Time | Temp. | Humidity | Pressure | Rain* | Wind** | Luminosity | Snow |
|---|---|---|---|---|---|---|---|
| 1777910282 | 9.44° C | 56% | 1020.5 hPa | 0 mm | - | 271 W/m² | - |
| 1777909682 | 9.44° C | 58% | 1020.5 hPa | 0 mm | - | 260 W/m² | - |
| 1777909081 | 9.44° C | 57% | 1020.4 hPa | 0 mm | - | 302 W/m² | - |
| 1777908782 | 9.44° C | 57% | 1020.4 hPa | 0 mm | - | 267 W/m² | - |
| 1777908043 | 8.89° C | 58% | 1020.5 hPa | 0 mm | - | 190 W/m² | - |
| 1777907882 | 8.89° C | 58% | 1020.5 hPa | 0 mm | - | 190 W/m² | - |
| 1777907482 | 8.89° C | 56% | 1020.3 hPa | 0 mm | - | 158 W/m² | - |
| 1777907281 | 8.89° C | 56% | 1020.3 hPa | 0 mm | - | 158 W/m² | - |
| 1777906982 | 8.89° C | 55% | 1020.3 hPa | 0 mm | - | 165 W/m² | - |
| 1777906382 | 8.33° C | 54% | 1020.6 hPa | 0 mm | - | 171 W/m² | - |
| 1777906314 | 8.33° C | 53% | 1020.5 hPa | 0 mm | - | 144 W/m² | - |
| 1777906082 | 8.33° C | 53% | 1020.5 hPa | 0 mm | - | 144 W/m² | - |
| 1777905782 | 8.33° C | 53% | 1020.4 hPa | 0 mm | - | 130 W/m² | - |
| 1777905487 | 8.33° C | 53% | 1019.6 hPa | 0 mm | - | 114 W/m² | - |
| 1777905110 | 8.33° C | 52% | 1019.9 hPa | 0 mm | - | 107 W/m² | - |
| 1777904881 | 8.33° C | 52% | 1019.9 hPa | 0 mm | - | 107 W/m² | - |
| 1777904582 | 8.33° C | 51% | 1019.8 hPa | 0 mm | - | 105 W/m² | - |
| 1777904547 | 8.33° C | 51% | 1019.7 hPa | 0 mm | - | 95 W/m² | - |
| 1777904282 | 8.33° C | 51% | 1019.7 hPa | 0 mm | - | 95 W/m² | - |
| 1777903981 | 8.33° C | 52% | 1019.7 hPa | 0 mm | - | 98 W/m² | - |
| 1777903931 | 7.78° C | 52% | 1019.9 hPa | 0 mm | - | 88 W/m² | - |
| 1777903682 | 7.78° C | 52% | 1019.9 hPa | 0 mm | - | 88 W/m² | - |
| 1777903381 | 7.78° C | 54% | 1019.6 hPa | 0 mm | - | 81 W/m² | - |
| 1777903082 | 7.78° C | 54% | 1019.8 hPa | 0 mm | - | 69 W/m² | - |
| 1777902782 | 7.78° C | 54% | 1019.7 hPa | 0 mm | - | 63 W/m² | - |
* Rain latest hour (hover to see other rain measurements)
** Current wind speed in m/s (hover to see current wind gust speed)